Terminal Aerodrome Forecast
Issued by NWS Pocatello, ID

Home | Current Version | Previous Version | Text Only | Print | Product List | Glossary On
Versions: 1 2 3 4 5 6 7 8 9 10 11 12 13 14 15 16 17 18
000
FTUS45 KPIH 202300
TAFPIH
TAF
KPIH 202320Z 2100/2124 VRB05KT P6SM FEW025 BKN080
     FM210500 VRB05KT 5SM BR OVC020
     FM211800 VRB05KT P6SM SCT020 BKN040=

USA.gov is the U.S. government's official web portal to all federal, state and local government web resources and services.